Weather History for Malaga, Spain

Change the Weather History Date:

Saturday, December 8, 2012

  Actual Average Record
Temperature  
Mean Temperature 59 °F -  
Max Temperature 68 °F 60 °F 71 °F (2010)
Min Temperature 50 °F 45 °F 37 °F (1998)
Degree Days  
Heating Degree Days 6    
Growing Degree Days 9 (Base 50)    
Moisture  
Dew Point 51 °F    
Average Humidity 78    
Maximum Humidity 100    
Minimum Humidity 44    
Precipitation  
Precipitation 0.00 in 0.12 in - ()
Sea Level Pressure  
Sea Level Pressure 30.11 in    
Wind  
Wind Speed 9 mph ()    
Max Wind Speed 15 mph    
Max Gust Speed -    
Visibility 5.1 miles    
Events Fog    
Averages and records for this station are not official NWS values.
T = Trace of Precipitation, MM = Missing Value Source: Averaged Metar Reports

Daily Weather History Graph

Daily Weather History Graph

Search for Another Location

Airport:

Trip Planner

Search our weather history database for the weather conditions in past years. The results will help you decide how hot, cold, wet, or windy it might be!

Date:

Astronomy

Dec. 08, 2012 Rise Set
Actual Time 8:18 AM CET 6:01 PM CET
Civil Twilight 7:49 AM CET 6:30 PM CET
Nautical Twilight 7:17 AM CET 7:02 PM CET
Astronomical Twilight 6:45 AM CET 7:34 PM CET
Moon 2:34 AM CET (12/8) 2:17 PM CET (12/8)
Length of Visible Light 10h 41m
Length of Day
9h 43m
Waning Crescent, 31% of the Moon is Illuminated
Dec 8
Waning Crescent
Dec 13
New
Dec 20
First Quarter
Dec 28
Full
Jan 5
Last Quarter

Hourly Weather History & Observations

Time (CET) Temp. Dew Point Humidity Pressure Visibility Wind Dir Wind Speed Gust Speed Precip Events Conditions
12:00 AM 50.0 °F 50.0 °F 100% 30.09 in 1.9 mi NW 5.8 mph - N/A   Mostly Cloudy
12:30 AM 50.0 °F 50.0 °F 100% 30.09 in 0.9 mi WNW 9.2 mph - N/A   Mostly Cloudy
12:31 AM 50.0 °F 50.0 °F 100% 30.09 in 0.4 mi WNW 8.1 mph - N/A Fog Fog
1:00 AM 51 °F 50 °F 94% 30.10 in 0 mi NW 6.9 mph - - Fog Partial Fog
1:00 AM 50.0 °F 50.0 °F 100% 30.09 in 0.2 mi NW 6.9 mph - N/A Fog Fog
1:30 AM 51.8 °F 51.8 °F 100% 30.09 in 0.3 mi NW 5.8 mph - N/A Fog Fog
2:00 AM 50.0 °F 50.0 °F 100% 30.06 in 0.2 mi NW 4.6 mph - N/A Fog Fog
2:30 AM 50.0 °F 50.0 °F 100% 30.06 in 0.6 mi NW 4.6 mph - N/A   Mostly Cloudy
2:56 AM 50.0 °F 50.0 °F 100% 30.06 in 6.2 mi NNW 5.8 mph - N/A   Scattered Clouds
3:00 AM 50.0 °F 50.0 °F 100% 30.06 in 6.2 mi NNW 5.8 mph - N/A   Scattered Clouds
3:30 AM 53.6 °F 53.6 °F 100% 30.06 in 6.2 mi West 9.2 mph - N/A   Scattered Clouds
4:00 AM 55.4 °F 53.6 °F 94% 30.06 in 6.2 mi WNW 11.5 mph - N/A   Scattered Clouds
4:30 AM 53.6 °F 51.8 °F 94% 30.06 in 6.2 mi NW 8.1 mph - N/A   Scattered Clouds
5:00 AM 55.4 °F 53.6 °F 94% 30.06 in 6.2 mi WNW 12.7 mph - N/A   Partly Cloudy
5:30 AM 55.4 °F 51.8 °F 88% 30.06 in 6.2 mi WNW 11.5 mph - N/A   Partly Cloudy
6:00 AM 55.4 °F 53.6 °F 94% 30.06 in 6.2 mi West 11.5 mph - N/A   Partly Cloudy
6:30 AM 55.4 °F 53.6 °F 94% 30.06 in 6.2 mi West 12.7 mph - N/A   Partly Cloudy
7:00 AM 56 °F 52 °F 81% 30.09 in 6 mi West 12.7 mph - -   Partly Cloudy
7:00 AM 55.4 °F 53.6 °F 94% 30.09 in 6.2 mi West 12.7 mph - N/A   Partly Cloudy
7:30 AM 57.2 °F 53.6 °F 88% 30.09 in 6.2 mi WNW 12.7 mph - N/A   Partly Cloudy
8:00 AM 57.2 °F 53.6 °F 88% 30.09 in 6.2 mi WNW 11.5 mph - N/A   Scattered Clouds
8:30 AM 57.2 °F 51.8 °F 82% 30.09 in 6.2 mi WNW 12.7 mph - N/A   Mostly Cloudy
9:00 AM 57.2 °F 53.6 °F 88% 30.09 in 6.2 mi WNW 12.7 mph - N/A   Mostly Cloudy
9:30 AM 59.0 °F 53.6 °F 82% 30.12 in 6.2 mi West 15.0 mph - N/A   Scattered Clouds
10:00 AM 59.0 °F 53.6 °F 82% 30.12 in 6.2 mi WNW 13.8 mph - N/A   Scattered Clouds
10:30 AM 60.8 °F 53.6 °F 77% 30.12 in 6.2 mi WNW 11.5 mph - N/A   Partly Cloudy
11:00 AM 62.6 °F 53.6 °F 72% 30.12 in 6.2 mi WNW 12.7 mph - N/A   Partly Cloudy
11:30 AM 62.6 °F 55.4 °F 77% 30.12 in 6.2 mi WNW 12.7 mph - N/A   Partly Cloudy
12:00 PM 64.4 °F 51.8 °F 64% 30.12 in 6.2 mi West 13.8 mph - N/A   Partly Cloudy
12:30 PM 64.4 °F 53.6 °F 68% 30.12 in 6.2 mi WNW 12.7 mph - N/A   Partly Cloudy
1:00 PM 67 °F 50 °F 44% 30.13 in 25 mi WNW 12.7 mph - -   Scattered Clouds
1:00 PM 66.2 °F 53.6 °F 64% 30.12 in 6.2 mi WNW 12.7 mph - N/A   Partly Cloudy
1:30 PM 66.2 °F 51.8 °F 60% 30.09 in 6.2 mi WNW 12.7 mph - N/A   Partly Cloudy
2:00 PM 66.2 °F 51.8 °F 60% 30.09 in 6.2 mi WNW 12.7 mph - N/A   Partly Cloudy
2:30 PM 66.2 °F 50.0 °F 56% 30.09 in 6.2 mi WNW 12.7 mph - N/A   Partly Cloudy
3:00 PM 66.2 °F 50.0 °F 56% 30.09 in 6.2 mi WNW 13.8 mph - N/A   Partly Cloudy
3:30 PM 66.2 °F 50.0 °F 56% 30.09 in 6.2 mi WNW 13.8 mph - N/A   Partly Cloudy
4:00 PM 66.2 °F 50.0 °F 56% 30.09 in 6.2 mi WNW 15.0 mph - N/A   Partly Cloudy
4:30 PM 64.4 °F 51.8 °F 64% 30.09 in 6.2 mi WNW 13.8 mph - N/A   Partly Cloudy
5:00 PM 64.4 °F 50.0 °F 59% 30.12 in 6.2 mi WNW 12.7 mph - N/A   Partly Cloudy
5:30 PM 62.6 °F 50.0 °F 63% 30.12 in 6.2 mi WNW 11.5 mph - N/A   Partly Cloudy
6:00 PM 60.8 °F 50.0 °F 68% 30.12 in 6.2 mi WNW 11.5 mph - N/A   Partly Cloudy
6:30 PM 60.8 °F 50.0 °F 68% 30.12 in 6.2 mi West 11.5 mph - N/A   Partly Cloudy
7:00 PM 60 °F 50 °F 60% 30.16 in 25 mi West 10.4 mph - -   Scattered Clouds
7:00 PM 59.0 °F 50.0 °F 72% 30.15 in 6.2 mi West 10.4 mph - N/A   Partly Cloudy
7:30 PM 59.0 °F 48.2 °F 67% 30.15 in - West 11.5 mph - N/A   Clear
8:00 PM 57.2 °F 48.2 °F 72% 30.15 in - WNW 12.7 mph - N/A   Clear
8:30 PM 57.2 °F 48.2 °F 72% 30.18 in - WNW 12.7 mph - N/A   Clear
9:00 PM 57.2 °F 46.4 °F 67% 30.18 in - West 15.0 mph - N/A   Clear
9:30 PM 59.0 °F 46.4 °F 63% 30.18 in - West 13.8 mph - N/A   Clear
10:00 PM 57.2 °F 46.4 °F 67% 30.18 in - West 15.0 mph - N/A   Clear
10:30 PM 57.2 °F 46.4 °F 67% 30.18 in - West 13.8 mph - N/A   Clear
11:00 PM 55.4 °F 44.6 °F 67% 30.18 in - WNW 11.5 mph - N/A   Clear
11:30 PM 50.0 °F 46.4 °F 87% 30.21 in - NW 6.9 mph - N/A   Clear